Voltar ao catálogo

COSMOS 2251 DEB

AtivoLEO
NORAD 35701·DEBRIS·🇷🇺 Russia

Lançado Jun 16, 1993 de Plesetsk Cosmodrome

Loading…

Próximas Passagens (próximas 24 horas)

TLE

AtualizadoSource: Space-Track

Época: Sep 14, 2026, 04:17 UTC

1 35701U 93036APW 26257.17899948  .00002463  00000-0  16925-2 0  9994
2 35701  74.0039 198.7535 0288184 348.0815  11.3580 13.81811176659622

Acompanhe COSMOS 2251 DEB em tempo real com AllMySat

Download on the App Store